www.pogodaiklimat.ru

Погода и климат >> Архив погоды >> Австрия >> Цельтвег


ПОГОДА в Цельтвеге

  • Прогноз погоды в Цельтвеге
  • Монитор погоды в Цельтвеге

АРХИВ ПОГОДЫ в Цельтвеге

Время (UTC), дата Ветер
(напр.,м/с)
 
Видим.   Явления Облачность Т
(С)
Тd
(С)
f
(%)
Тe
(С)
Тes
(С)
Комфортность P
(гПа)
Po
(гПа)
Тmin
(С)
Tmax
(С)
R
(мм)
R24
(мм)
S
(см)
10 11.09 В 1 н/о н/о +14.4 +9.9 74 +15 +15 1023.9 945.5
11 11.09 С 1 н/о н/о +17.0 +10.5 66 +18 +18 1022.8 945.1
12 11.09 СВ 1 н/о н/о +19.1 +6.8 45 +21 +21 комфорт 1021.7 944.6
13 11.09 СЗ 1 н/о н/о +21.0 +8.2 44 +23 +23 комфорт 1020.9 944.3
14 11.09 В 2 н/о н/о +21.4 +9.5 47 +23 +23 комфорт 1020.4 944.0
15 11.09 ЮВ 2 н/о н/о +21.2 +10.5 50 +23 +23 комфорт 1020.2 943.8
16 11.09 ЮВ 3 н/о н/о +20.1 +10.6 54 +22 +22 комфорт 1021.1 944.4
17 11.09 В 1 н/о н/о +18.7 +10.2 58 +20 +20 1022.0 944.8
18 11.09 С 2 н/о н/о +16.0 +10.8 71 +16 +16 1023.6 945.6 +8.8 +21.9
19 11.09 Ю 1 н/о н/о +15.1 +11.0 76 +16 +16 1024.9 946.6
20 11.09 штиль 0 н/о н/о +13.0 +10.2 83 +13 +13 1026.3 947.3
21 11.09 штиль 0 н/о н/о +13.3 +10.6 84 +13 +13 1026.8 947.9
22 11.09 Ю 1 н/о н/о +13.1 +10.3 83 +13 +13 1027.5 948.5
23 11.09 штиль 0 н/о н/о +12.0 +10.2 89 +11 +11 1028.2 948.8
00 12.09 ЮВ 1 н/о н/о +11.7 +10.0 89 +11 +11 1028.3 948.8
01 12.09 С 1 н/о н/о +10.5 +8.9 90 +10 +10 1029.0 949.1
02 12.09 штиль 0 н/о н/о +9.5 +8.4 93 +9 +9 1029.8 949.6
03 12.09 штиль 0 н/о н/о +8.7 +7.8 94 +8 +8 1030.4 949.9
04 12.09 З 1 н/о н/о +8.5 +7.9 96 +8 +8 1031.0 950.4
05 12.09 штиль 0 н/о н/о +8.5 +7.8 95 +8 +8 1031.6 951.0
06 12.09 Ю 1 н/о н/о +9.6 +8.8 95 +9 +9 1031.8 951.5 +8.3 +16.5
07 12.09 СВ 1 н/о н/о +10.5 +10.0 97 +10 +10 1032.1 952.0
08 12.09 СЗ 1 н/о н/о +13.2 +10.9 86 +13 +13 1031.5 952.2
09 12.09 штиль 0 н/о н/о +15.7 +10.7 72 +16 +16 1030.9 952.3
10 12.09 С 1 н/о н/о +18.6 +11.2 62 +20 +20 1030.0 952.2
11 12.09 штиль 0 н/о н/о +20.7 +9.7 49 +22 +22 комфорт 1029.3 952.1
12 12.09 В 1 н/о н/о +21.6 +9.4 46 +23 +23 комфорт 1028.8 951.8
13 12.09 СЗ 1 н/о н/о +21.1 +9.2 46 +22 +22 комфорт 1028.7 951.6
14 12.09 В 2 н/о н/о +21.3 +9.9 48 +23 +23 комфорт 1028.6 951.6
15 12.09 СВ 4 н/о н/о +20.2 +10.1 52 +22 +22 комфорт 1029.1 951.8
16 12.09 В 2 н/о н/о +19.7 +10.4 55 +22 +22 комфорт 1029.0 951.6
17 12.09 СЗ 1 н/о н/о +17.7 +12.4 71 +19 +19 1029.8 951.8
18 12.09 ЮЗ 1 н/о н/о +15.0 +11.1 77 +16 +16 1031.0 952.2 +9.4 +21.9 0.0
20 12.09 штиль 0 н/о н/о +12.5 +10.2 86 +12 +12 1032.6 953.0
21 12.09 штиль 0 н/о н/о +11.2 +9.2 87 +11 +11 1033.3 953.3
22 12.09 штиль 0 н/о н/о +10.1 +8.7 91 +9 +9 1034.0 953.6
23 12.09 штиль 0 н/о н/о +9.5 +8.5 93 +9 +9 1034.4 953.8
00 13.09 З 1 н/о н/о +8.9 +7.9 93 +8 +8 1034.5 953.7
01 13.09 СЗ 2 н/о н/о +7.9 +6.9 93 +6 +6 1034.6 953.5
02 13.09 штиль 0 н/о н/о +7.7 +6.8 94 +7 +7 1034.6 953.5
03 13.09 З 1 н/о н/о +7.7 +7.1 96 +7 +7 1034.7 953.6
04 13.09 штиль 0 н/о н/о +7.7 +7.0 95 +7 +7 1034.9 953.8
05 13.09 С 1 н/о н/о +7.3 +7.0 98 +6 +6 1035.4 954.1
06 13.09 штиль 0 н/о н/о +8.7 +8.2 97 +8 +8 1034.6 953.8 +6.9 +15.1
07 13.09 штиль 0 н/о н/о +12.5 +9.4 81 +12 +12 1033.4 953.7
08 13.09 штиль 0 н/о н/о +13.9 +10.2 78 +14 +14 1032.8 953.6
09 13.09 З 1 н/о н/о +16.8 +10.9 68 +18 +18 1031.6 953.2
10 13.09 З 1 н/о н/о +19.1 +11.5 61 +21 +21 комфорт 1030.3 952.6 0.0
11 13.09 В 1 н/о н/о +21.1 +10.7 51 +23 +23 комфорт 1029.2 952.1
12 13.09 СВ 1 н/о н/о +23.0 +11.7 49 +25 +25 комфорт 1027.8 951.3 0.0
13 13.09 В 2 н/о н/о +23.7 +10.7 44 +25 +25 комфорт 1027.2 950.9
14 13.09 СВ 4 н/о н/о +24.8 +10.2 40 +26 +26 жарко 1026.5 950.5
15 13.09 СВ 3 н/о н/о +24.9 +10.5 40 +26 +26 жарко 1026.2 950.3
16 13.09 ЮВ 2 н/о н/о +24.6 +10.3 40 +26 +26 жарко 1026.2 950.2
17 13.09 СЗ 1 н/о н/о +21.1 +12.9 59 +23 +23 комфорт 1027.6 950.7
18 13.09 З 2 н/о н/о +17.8 +13.0 73 +18 +18 1029.0 951.1 +8.6 +25.1 0.0
19 13.09 З 2 н/о н/о +16.2 +12.3 78 +16 +16 1030.0 951.6
20 13.09 З 1 н/о н/о +14.3 +11.4 83 +15 +15 1031.1 952.1
21 13.09 СЗ 1 н/о н/о +13.8 +11.1 84 +14 +14 1031.8 952.6
22 13.09 З 1 н/о н/о +12.5 +10.5 88 +12 +12 1032.5 952.9
23 13.09 З 1 н/о н/о +11.2 +9.7 90 +11 +11 1032.9 952.9
00 14.09 ЮЗ 1 н/о н/о +10.9 +9.3 90 +11 +11 1032.6 952.6
01 14.09 штиль 0 н/о н/о +10.2 +8.9 92 +9 +9 1032.7 952.5
02 14.09 З 1 н/о н/о +9.7 +8.9 95 +9 +9 1033.0 952.6
03 14.09 З 1 н/о н/о +9.3 +8.4 94 +9 +9 1033.0 952.5
04 14.09 З 2 н/о н/о +8.8 +7.8 93 +7 +7 1033.3 952.6
05 14.09 С 1 н/о н/о +8.3 +7.1 92 +7 +7 1033.6 952.7
06 14.09 штиль 0 н/о н/о +9.4 +8.3 93 +9 +9 1033.5 953.0 +8.2 +18.4
07 14.09 СВ 1 н/о н/о +12.3 +9.4 82 +12 +12 1032.7 953.0
08 14.09 СЗ 1 н/о н/о +14.0 +10.7 80 +14 +14 1032.0 952.9
09 14.09 ЮВ 1 н/о н/о +17.5 +11.6 68 +19 +19 1030.6 952.5
10 14.09 В 2 н/о н/о +19.1 +12.1 64 +21 +21 комфорт 1029.7 952.1
11 14.09 В 4 н/о н/о +20.5 +13.0 62 +23 +23 комфорт 1028.5 951.4
12 14.09 В 3 н/о н/о +22.5 +12.1 52 +25 +25 комфорт 1027.1 950.5
13 14.09 В 2 н/о н/о +22.7 +12.1 51 +25 +25 комфорт 1026.5 950.0
14 14.09 В 5 н/о н/о +22.0 +13.8 60 +25 +25 комфорт 1026.3 949.7
15 14.09 В 4 н/о н/о +20.9 +13.5 63 +24 +24 комфорт 1026.4 949.5
16 14.09 ЮВ 3 н/о н/о +19.9 +13.3 66 +22 +22 комфорт 1026.7 949.6 0.0
17 14.09 ЮВ 3 н/о н/о +19.1 +13.2 69 +20 +20 1027.2 949.8
18 14.09 ЮВ 3 н/о н/о +18.3 +12.9 71 +19 +19 1027.7 950.1 +9.0 +23.4 0.0
19 14.09 В 2 н/о н/о +18.0 +13.0 73 +19 +19 1028.1 950.4
20 14.09 С 1 н/о н/о +16.6 +13.4 81 +17 +17 1028.4 950.3
21 14.09 В 2 н/о н/о +16.6 +13.2 80 +17 +17 1028.9 950.7
22 14.09 ЮВ 1 н/о н/о +16.3 +13.1 81 +17 +17 1028.6 950.4
23 14.09 штиль 0 н/о н/о +15.8 +13.4 86 +16 +16 1028.5 950.2
00 15.09 штиль 0 н/о н/о +15.3 +13.2 87 +15 +15 1028.6 950.1
01 15.09 ЮЗ 1 н/о н/о +15.1 +13.0 87 +16 +16 1028.6 950.1
02 15.09 ЮЗ 2 н/о н/о +14.3 +12.8 91 +14 +14 1028.0 949.3
03 15.09 Ю 1 н/о н/о +14.0 +12.5 91 +14 +14 1027.7 948.9
04 15.09 СЗ 1 н/о н/о +12.8 +11.5 92 +13 +13 1027.8 948.7
05 15.09 ЮВ 1 н/о н/о +12.5 +11.6 94 +12 +12 1027.9 948.7
06 15.09 З 1 н/о н/о +13.0 +11.9 93 +13 +13 1027.7 948.7 +11.8 +18.4
07 15.09 ЮЗ 1 н/о н/о +14.9 +12.1 83 +15 +15 1027.3 948.8
08 15.09 С 1 н/о н/о +17.3 +13.2 77 +18 +18 1026.3 948.5
09 15.09 СЗ 1 н/о н/о +19.2 +14.1 72 +22 +22 комфорт 1025.1 947.9
10 15.09 С 1 н/о н/о +20.8 +13.9 65 +25 +25 комфорт 1024.0 947.3
11 15.09 ЮВ 2 н/о н/о +22.9 +13.6 56 +26 +26 жарко 1022.6 946.5
12 15.09 Ю 1 н/о н/о +23.6 +14.0 55 +26 +26 жарко 1021.6 945.8
13 15.09 СЗ 1 н/о н/о +24.9 +15.0 54 +28 +28 жарко 1020.5 945.1
14 15.09 ЮВ 1 н/о н/о +25.2 +14.5 51 +28 +28 жарко 1019.7 944.4
15 15.09 Ю 2 н/о н/о +25.0 +15.2 55 +28 +28 жарко 1019.4 944.1
16 15.09 Ю 2 н/о н/о +24.3 +15.5 58 +27 +27 жарко 1019.1 943.7
17 15.09 З 1 н/о н/о +22.6 +15.6 65 +27 +27 душно 1019.5 943.6
18 15.09 СЗ 2 н/о н/о +19.1 +15.1 78 +21 +21 комфорт 1020.9 944.0 +12.9 +25.6
19 15.09 штиль 0 н/о н/о +17.6 +14.4 82 +18 +18 1021.6 944.3
20 15.09 Ю 1 н/о н/о +16.8 +13.4 80 +18 +18 1022.2 944.6
21 15.09 штиль 0 н/о н/о +15.2 +13.6 90 +15 +15 1022.6 944.6
22 15.09 СЗ 1 н/о н/о +13.3 +11.2 87 +13 +13 1023.2 944.6
23 15.09 СВ 1 н/о н/о +12.5 +11.4 93 +12 +12 1023.5 944.6
00 16.09 СЗ 2 н/о н/о +10.6 +9.4 92 +9 +9 1023.9 944.5
01 16.09 З 1 н/о н/о +11.1 +10.3 95 +11 +11 1023.4 944.2
02 16.09 штиль 0 н/о н/о +10.6 +9.7 94 +10 +10 1023.5 944.1
03 16.09 СЗ 1 н/о н/о +9.5 +9.4 99 +9 +9 1023.7 944.0
04 16.09 З 1 н/о н/о +9.2 +9.2 100 +8 +8 1023.6 943.8
05 16.09 ЮЗ 1 н/о н/о +9.5 +9.4 99 +9 +9 1023.4 943.7
06 16.09 З 1 н/о н/о +10.0 +9.9 99 +9 +9 1023.3 943.8 +9.0 +19.7
07 16.09 штиль 0 н/о н/о +13.1 +11.0 87 +13 +13 1022.3 943.7
08 16.09 штиль 0 н/о н/о +15.5 +12.1 80 +15 +15 1021.3 943.4
09 16.09 В 1 н/о н/о +17.7 +12.2 70 +19 +19 1020.3 943.1 0.0
10 16.09 штиль 0 н/о н/о +19.6 +12.4 63 +21 +21 комфорт 1019.0 942.3
11 16.09 СЗ 1 н/о н/о +22.0 +12.2 54 +24 +24 комфорт 1017.5 941.5
12 16.09 СВ 1 н/о н/о +24.8 +11.9 44 +26 +26 жарко 1015.5 940.4 0.0
13 16.09 С 1 н/о н/о +25.3 +11.6 42 +27 +27 жарко 1014.4 939.5
14 16.09 СЗ 2 н/о н/о +25.7 +13.5 47 +28 +28 жарко 1013.6 938.9
15 16.09 СЗ 1 н/о н/о +26.1 +14.2 48 +28 +28 жарко 1013.1 938.5
16 16.09 В 1 н/о н/о +25.3 +14.2 50 +28 +28 жарко 1013.3 938.5
17 16.09 С 2 н/о н/о +21.8 +15.9 69 +25 +25 комфорт 1014.4 938.7
18 16.09 СЗ 1 н/о н/о +19.3 +14.9 76 +22 +22 комфорт 1015.4 939.0 +9.9 +26.8 0.0
19 16.09 З 1 н/о н/о +18.4 +14.7 79 +20 +20 1015.9 939.2
20 16.09 З 1 н/о н/о +17.2 +14.2 83 +18 +18 1016.7 939.7
21 16.09 штиль 0 н/о н/о +16.5 +13.8 84 +16 +16 1016.7 939.5
22 16.09 В 1 н/о н/о +16.3 +13.8 85 +17 +17 1016.6 939.3
23 16.09 В 1 н/о н/о +15.8 +13.6 87 +16 +16 1016.7 939.3
00 17.09 В 3 н/о осадки н/о +16.1 +13.6 85 +16 +16 1016.8 939.5 0.0
01 17.09 СЗ 3 н/о в посл. час осадки н/о +15.2 +14.0 93 +14 +14 1016.3 938.8 0.2
02 17.09 В 2 н/о н/о +15.7 +14.3 91 +16 +16 1016.2 938.8 0.0
03 17.09 штиль 0 н/о {осадки} н/о +15.0 +13.8 93 +15 +15 1016.0 938.4 0.2
04 17.09 ЮВ 1 н/о н/о +15.1 +13.9 93 +16 +16 1016.0 938.5
05 17.09 СЗ 1 н/о н/о +14.4 +13.5 94 +15 +15 1016.4 938.6
06 17.09 ЮЗ 1 н/о {осадки} н/о +15.0 +13.9 93 +15 +15 1016.4 938.8 +14.4 +20.6 0.2
07 17.09 штиль 0 н/о н/о +16.5 +14.0 85 +16 +16 1016.2 939.0
08 17.09 штиль 0 н/о н/о +18.2 +14.5 79 +18 +18 1015.7 939.0
09 17.09 В 1 н/о н/о +19.1 +14.3 74 +21 +21 комфорт 1015.1 938.7
10 17.09 СВ 1 н/о н/о +19.4 +13.8 70 +22 +22 комфорт 1014.9 938.5 0.0
11 17.09 СВ 2 н/о в посл. час осадки н/о +19.8 +14.3 71 +22 +22 комфорт 1014.4 938.2 0.1
12 17.09 штиль 0 н/о {осадки} н/о +22.4 +13.6 57 +25 +25 комфорт 1012.9 937.4 0.1
13 17.09 СВ 2 н/о н/о +21.8 +13.8 60 +25 +25 комфорт 1012.6 937.0
14 17.09 С 1 н/о н/о +22.7 +13.4 56 +26 +26 жарко 1011.5 936.2
15 17.09 штиль 0 н/о н/о +23.8 +11.9 47 +25 +25 комфорт 1010.7 935.7
16 17.09 СЗ 1 н/о н/о +21.9 +15.4 67 +26 +26 душно 1011.2 935.8
17 17.09 ЮЗ 1 н/о н/о +20.5 +13.7 65 +24 +24 комфорт 1011.9 936.0
18 17.09 С 1 н/о н/о +17.0 +11.0 68 +18 +18 1013.8 936.8 +14.7 +24.6 0.1
19 17.09 Ю 2 н/о н/о +16.4 +11.7 74 +17 +17 1014.7 937.5
20 17.09 ЮВ 1 н/о н/о +16.3 +11.1 71 +17 +17 1015.0 937.8
21 17.09 ЮВ 1 н/о н/о +14.3 +10.9 80 +15 +15 1015.7 937.9
22 17.09 С 1 н/о н/о +12.2 +9.8 85 +12 +12 1016.5 938.1
23 17.09 В 2 н/о н/о +13.6 +10.1 79 +13 +13 1016.1 938.1
00 18.09 В 1 н/о н/о +12.3 +9.2 81 +12 +12 1017.1 938.6
01 18.09 В 1 н/о н/о +12.5 +9.2 80 +13 +13 1017.0 938.6
02 18.09 Ю 2 н/о н/о +11.8 +9.1 84 +11 +11 1017.5 938.9
03 18.09 ЮВ 2 н/о н/о +12.3 +8.9 80 +11 +11 1018.0 939.5
04 18.09 ЮВ 1 н/о н/о +12.7 +8.3 75 +13 +13 1018.6 940.1
05 18.09 В 1 н/о н/о +12.7 +7.7 72 +13 +13 1019.3 940.7
06 18.09 СВ 1 н/о н/о +13.4 +7.6 68 +14 +14 1019.7 941.3 +11.5 +17.9
07 18.09 В 2 н/о н/о +15.3 +7.6 60 +15 +15 1019.7 941.8
08 18.09 В 4 н/о н/о +16.0 +5.6 50 +15 +15 1020.1 942.3
09 18.09 В 4 н/о н/о +16.5 +5.3 47 +16 +16 1019.9 942.2

 

Местоположение метеостанции Цельтвег (Австрия): широта 47.20 долгота 14.75 высота над уровнем моря 679 м.

В архиве по умолчанию представлена погода в Цельтвеге за последнюю неделю. Архивные данные за месяц целиком и за предыдущие месяцы, начиная с января 2011 года, Вы можете получить, выбрав интересующий диапазон дат из раскрывающегося списка и нажав кнопку "Ввод!".


*Определитесь, кто Вы:
робот инопланетянин человек

Внимание! Время в таблицах - всемирное. Для получения местного времени необходимо прибавить поправку, которая равна 1 ч.

Смотрите также архив погоды в соседних городах и на ближайших метеорологических станциях:

Погода в Кальванге (Австрия) (24 км)
Погода в Ноймаркте (Австрия) (29 км)
Погода в Кёфлаге (Австрия) (29 км)
Погода в Леобене (Австрия) (33 км)
Погода в Прайтенеге (Австрия) (33 км)
Погода в Пребихле (Австрия) (39 км)
Погода в Мурау (Австрия) (44 км)
Погода в Брукк-ан-дер-Муре (Австрия) (46 км)
Погода в Санкт-Андре (Австрия) (48 км)
Погода в Капфенберге (Австрия) (50 км)

Пояснения к столбцам:

Ветер - указаны скорость ветра в м/с - средняя за 10 мин, порывы в срок и между сроками (в фигурных скобках) и направление, откуда дует ветер: С - северный, СВ - северо-восточный, В - восточный, ЮВ - юго-восточный, Ю - южный, ЮЗ - юго-западный, З - западный, СЗ - северо-западный.
Видимость - горизонтальная дальность видимости в метрах или километрах. При видимости от 1 до 10 км при отсутствии осадков обычно наблюдается дымка, при ухудшении видимости до 1 км и менее - туман. В сухую погоду видимость может ухудшаться дымом, пылью или мглою.
Явления - указаны атмосферные явления, наблюдавшиеся в срок или в последний час перед сроком; фигурными скобками обозначены явления, наблюдавшиеся между сроками (за 1-3 часа до срока); квадратными скобками обозначены град или гололедные отложения с указанием их диаметра в мм.
Облачность - указаны через наклонную черту общая и нижняя облачность в баллах и высота нижней границы облаков в метрах; квадратными скобками обозначены формы облаков: Ci - перистые, Cs - перисто-слоистые, Cc - перисто-кучевые, Ac - высококучевые, As - высокослоистые, Sc - слоисто-кучевые, Ns - слоисто-дождевые, Cu - кучевые, Cb - кучево-дождевые. Подробнее классификацию облаков см. в Атласе облаков (PDF).
T - Температура воздуха - температура, измеренная на высоте 2 м над землей.
Td - Температура точки росы - температура, при понижении до которой содержащийся в воздухе водяной пар достигнет насыщения.
f - Относительная влажность воздуха - влажноcть воздуха, измеренная на высоте 2 м над землей.
Te - Эффективная температура - температура, которую ощущает одетый по сезону человек в тени. Характеристика душности погоды. При расчете учитывается влияние влажности воздуха и скорости ветра на теплоощущения человека.
Tes - Эффективная температура на солнце - температура, которую ощущает человек, с поправкой на солнечный нагрев. Характеристика знойности погоды. Зависит от высоты солнца над горизонтом, облачности и скорости ветра. Ночью, в пасмурную погоду, а также при ветре 12 м/с и более поправка равна нулю.
P - Атмосферное давление - приведенное к уровню моря атмосферное давление.
Po - Атмосферное давление - измеренное на уровне метеостанции атмосферное давление.
Tmin - Минимальная температура - минимум температуры воздуха на высоте 2 м над землей.
Tmax - Максимальная температура - максимум температуры воздуха на высоте 2 м над землей.
R - Количество осадков - Количество выпавших осадков за период времени, мм. При наведении курсора мыши на число - период времени, за который выпало указанное количество осадков.
R24 - Количество осадков - Количество выпавших осадков за 24 часа, мм.
S - Снежный покров - Высота снежного покрова, см. При наведении курсора мыши на число - состояние снежного покрова и степень покрытия местности в баллах.